| time (UTC) | temp C | wind direction | speed KPH | gust KPH | rain 1hr cm | rain 24hr cm | rain mn cm | humidity % | barometer mb |
| 20260901060051 | 22 | 111 | 0.0 | 6.4 | 0.00 | 0.00 | 0.00 | 86 | 1018.1 |
| 20260901055550 | 23 | 176 | 1.6 | 6.4 | 0.00 | 0.00 | 0.00 | 85 | 1018.1 |
| 20260901055049 | 23 | 123 | 0.0 | 4.8 | 0.00 | 0.00 | 0.00 | 84 | 1018.1 |
| 20260901054551 | 23 | 188 | 0.0 | 4.8 | 0.00 | 0.00 | 0.00 | 83 | 1018.1 |
| 20260901054049 | 23 | 180 | 0.0 | 6.4 | 0.00 | 0.00 | 0.00 | 83 | 1018.1 |
| 20260901053548 | 23 | 121 | 1.6 | 8.0 | 0.00 | 0.00 | 0.00 | 82 | 1018.1 |
| 20260901053049 | 23 | 231 | 1.6 | 8.0 | 0.00 | 0.00 | 0.00 | 82 | 1018.1 |
| 20260901052546 | 23 | 147 | 3.2 | 9.7 | 0.00 | 0.00 | 0.00 | 82 | 1018.1 |
| 20260901052044 | 23 | 117 | 3.2 | 11.3 | 0.00 | 0.00 | 0.00 | 82 | 1018.1 |
| 20260901051543 | 24 | 165 | 1.6 | 14.5 | 0.00 | 0.00 | 0.00 | 80 | 1018.0 |
| 20260901051043 | 24 | 173 | 3.2 | 14.5 | 0.00 | 0.00 | 0.00 | 80 | 1018.0 |
| 20260901050645 | 24 | 142 | 3.2 | 8.0 | 0.00 | 0.00 | 0.00 | 80 | 1017.9 |
| 20260901050041 | 24 | 125 | 3.2 | 9.7 | 0.00 | 0.00 | 0.00 | 81 | 1017.9 |
| 20260901045541 | 25 | 155 | 1.6 | 11.3 | 0.00 | 0.00 | 0.00 | 79 | 1018.1 |
| 20260901045040 | 25 | 197 | 1.6 | 11.3 | 0.00 | 0.00 | 0.00 | 79 | 1018.1 |
| 20260901044557 | 25 | 117 | 3.2 | 11.3 | 0.00 | 0.00 | 0.00 | 79 | 1018.1 |
| 20260901044040 | 25 | 169 | 1.6 | 11.3 | 0.00 | 0.00 | 0.00 | 78 | 1018.1 |
| 20260901043540 | 25 | 184 | 3.2 | 11.3 | 0.00 | 0.00 | 0.00 | 77 | 1018.1 |
| 20260901043041 | 25 | 149 | 4.8 | 11.3 | 0.00 | 0.00 | 0.00 | 76 | 1018.0 |
| 20260901042539 | 25 | 156 | 3.2 | 11.3 | 0.00 | 0.00 | 0.00 | 76 | 1018.1 |
| 20260901042040 | 25 | 144 | 3.2 | 11.3 | 0.00 | 0.00 | 0.00 | 77 | 1018.0 |
| 20260901041539 | 25 | 157 | 3.2 | 11.3 | 0.00 | 0.00 | 0.00 | 78 | 1018.1 |
| 20260901041039 | 25 | 146 | 1.6 | 11.3 | 0.00 | 0.00 | 0.00 | 77 | 1018.0 |
| 20260901040639 | 25 | 173 | 3.2 | 11.3 | 0.00 | 0.00 | 0.00 | 77 | 1018.0 |
| 20260901040104 | 25 | 184 | 1.6 | 8.0 | 0.00 | 0.00 | 0.00 | 77 | 1017.9 |
| 20260901035602 | 25 | 146 | 3.2 | 9.7 | 0.00 | 0.00 | 0.00 | 77 | 1018.0 |
| 20260901035102 | 25 | 173 | 3.2 | 9.7 | 0.00 | 0.00 | 0.00 | 78 | 1018.0 |
| 20260901034558 | 25 | 141 | 1.6 | 4.8 | 0.00 | 0.00 | 0.00 | 79 | 1018.1 |
| 20260901034058 | 25 | 161 | 0.0 | 4.8 | 0.00 | 0.00 | 0.00 | 79 | 1018.1 |
| 20260901033558 | 25 | 170 | 1.6 | 6.4 | 0.00 | 0.00 | 0.00 | 79 | 1018.0 |
| 20260901033058 | 25 | 153 | 1.6 | 11.3 | 0.00 | 0.00 | 0.00 | 79 | 1018.0 |
| 20260901032600 | 25 | 171 | 3.2 | 11.3 | 0.00 | 0.00 | 0.00 | 80 | 1018.0 |
| 20260901032058 | 24 | 168 | 1.6 | 8.0 | 0.00 | 0.00 | 0.00 | 81 | 1018.0 |
| 20260901031559 | 23 | 196 | 1.6 | 11.3 | 0.00 | 0.00 | 0.00 | 82 | 1017.9 |
| 20260901031056 | 23 | 200 | 3.2 | 11.3 | 0.00 | 0.00 | 0.00 | 84 | 1018.0 |
| 20260901030656 | 23 | 160 | 1.6 | 8.0 | 0.00 | 0.00 | 0.00 | 85 | 1017.9 |
| 20260901030054 | 23 | 138 | 1.6 | 8.0 | 0.00 | 0.00 | 0.00 | 86 | 1017.9 |
| 20260901025554 | 22 | 202 | 1.6 | 8.0 | 0.00 | 0.00 | 0.00 | 86 | 1017.9 |
| 20260901025054 | 22 | 193 | 1.6 | 9.7 | 0.00 | 0.00 | 0.00 | 86 | 1017.9 |
| 20260901024601 | 22 | 161 | 1.6 | 4.8 | 0.00 | 0.00 | 0.00 | 86 | 1017.9 |
| 20260901024053 | 22 | 165 | 0.0 | 3.2 | 0.00 | 0.00 | 0.00 | 85 | 1017.8 |
| 20260901023553 | 23 | 175 | 0.0 | 3.2 | 0.00 | 0.00 | 0.00 | 85 | 1017.8 |
| 20260901023054 | 23 | 167 | 0.0 | 1.6 | 0.00 | 0.00 | 0.00 | 83 | 1017.8 |
| 20260901022553 | 23 | 159 | 0.0 | 1.6 | 0.00 | 0.00 | 0.00 | 82 | 1017.8 |
| 20260901022053 | 23 | 159 | 0.0 | 0.0 | 0.00 | 0.00 | 0.00 | 81 | 1017.7 |
| 20260901021608 | 23 | 159 | 0.0 | 0.0 | 0.00 | 0.00 | 0.00 | 80 | 1017.7 |
| 20260901021055 | 23 | 159 | 0.0 | 0.0 | 0.00 | 0.00 | 0.00 | 79 | 1017.6 |
| 20260901020653 | 24 | 159 | 0.0 | 1.6 | 0.00 | 0.00 | 0.00 | 79 | 1017.5 |
| 20260901020052 | 24 | 159 | 0.0 | 1.6 | 0.00 | 0.00 | 0.00 | 79 | 1017.5 |
| 20260901015552 | 24 | 159 | 0.0 | 1.6 | 0.00 | 0.00 | 0.00 | 79 | 1017.4 |
| 20260901015051 | 24 | 159 | 0.0 | 0.0 | 0.00 | 0.00 | 0.00 | 79 | 1017.4 |
| 20260901014552 | 24 | 159 | 0.0 | 3.2 | 0.00 | 0.00 | 0.00 | 78 | 1017.3 |
| 20260901014051 | 24 | 146 | 0.0 | 3.2 | 0.00 | 0.00 | 0.00 | 76 | 1017.3 |
| 20260901013551 | 25 | 173 | 0.0 | 1.6 | 0.00 | 0.00 | 0.00 | 76 | 1017.1 |
| 20260901013106 | 25 | 169 | 0.0 | 3.2 | 0.00 | 0.00 | 0.00 | 75 | 1017.1 |
| 20260901012553 | 25 | 159 | 0.0 | 1.6 | 0.00 | 0.00 | 0.00 | 73 | 1017.1 |
| 20260901012050 | 25 | 179 | 0.0 | 3.2 | 0.00 | 0.00 | 0.00 | 71 | 1017.0 |
| 20260901011550 | 26 | 179 | 0.0 | 3.2 | 0.00 | 0.00 | 0.00 | 71 | 1017.0 |
| 20260901011050 | 26 | 184 | 0.0 | 3.2 | 0.00 | 0.00 | 0.00 | 70 | 1016.8 |
| 20260901010651 | 26 | 184 | 0.0 | 3.2 | 0.00 | 0.00 | 0.00 | 68 | 1016.9 |
| 20260901010049 | 26 | 153 | 0.0 | 3.2 | 0.00 | 0.00 | 0.00 | 67 | 1016.9 |
| 20260901005549 | 27 | 165 | 0.0 | 3.2 | 0.00 | 0.00 | 0.00 | 66 | 1016.8 |
| 20260901005048 | 27 | 147 | 0.0 | 1.6 | 0.00 | 0.00 | 0.00 | 64 | 1016.7 |
| 20260901004549 | 27 | 144 | 0.0 | 1.6 | 0.00 | 0.00 | 0.00 | 63 | 1016.7 |
| 20260901004049 | 28 | 143 | 0.0 | 3.2 | 0.00 | 0.00 | 0.00 | 62 | 1016.7 |
| 20260901003548 | 28 | 140 | 0.0 | 4.8 | 0.00 | 0.00 | 0.00 | 62 | 1016.6 |
| 20260901003049 | 29 | 176 | 0.0 | 8.0 | 0.00 | 0.00 | 0.00 | 59 | 1016.6 |
| 20260901002548 | 30 | 157 | 1.6 | 8.0 | 0.00 | 0.00 | 0.00 | 60 | 1016.5 |
| 20260901002048 | 30 | 155 | 3.2 | 8.0 | 0.00 | 0.00 | 0.00 | 57 | 1016.4 |
| 20260901001548 | 30 | 169 | 3.2 | 9.7 | 0.00 | 0.00 | 0.00 | 57 | 1016.5 |
| 20260901001051 | 30 | 155 | 4.8 | 9.7 | 0.00 | 0.00 | 0.00 | 56 | 1016.4 |
| 20260901000648 | 31 | 230 | 3.2 | 16.1 | 0.00 | 0.00 | 0.00 | 53 | 1016.4 |
| 20260901000049 | 32 | 160 | 3.2 | 16.1 | 0.00 | 0.00 | 0.00 | 53 | 1016.4 |
| 20260831235546 | 32 | 184 | 3.2 | 9.7 | 0.00 | 0.00 | 0.00 | 50 | 1016.3 |
| 20260831235048 | 32 | 162 | 4.8 | 12.9 | 0.00 | 0.00 | 0.00 | 48 | 1016.4 |
| 20260831234545 | 32 | 191 | 4.8 | 14.5 | 0.00 | 0.00 | 0.00 | 48 | 1016.3 |
| 20260831234045 | 32 | 200 | 6.4 | 17.7 | 0.00 | 0.00 | 0.00 | 47 | 1016.3 |
| 20260831233546 | 32 | 189 | 4.8 | 19.3 | 0.00 | 0.00 | 0.00 | 48 | 1016.3 |
| 20260831233045 | 32 | 163 | 6.4 | 14.5 | 0.00 | 0.00 | 0.00 | 47 | 1016.3 |
| 20260831232547 | 33 | 216 | 3.2 | 16.1 | 0.00 | 0.00 | 0.00 | 47 | 1016.3 |
| 20260831232045 | 33 | 223 | 4.8 | 16.1 | 0.00 | 0.00 | 0.00 | 47 | 1016.3 |
| 20260831231600 | 33 | 177 | 4.8 | 14.5 | 0.00 | 0.00 | 0.00 | 46 | 1016.3 |
| 20260831231044 | 33 | 150 | 8.0 | 16.1 | 0.00 | 0.00 | 0.00 | 45 | 1016.3 |
| 20260831230644 | 33 | 109 | 6.4 | 16.1 | 0.00 | 0.00 | 0.00 | 45 | 1016.3 |
| 20260831230101 | 33 | 140 | 6.4 | 14.5 | 0.00 | 0.00 | 0.00 | 46 | 1016.4 |
| 20260831225557 | 33 | 207 | 6.4 | 14.5 | 0.00 | 0.00 | 0.00 | 47 | 1016.3 |
| 20260831225057 | 33 | 150 | 6.4 | 16.1 | 0.00 | 0.00 | 0.00 | 45 | 1016.3 |
| 20260831224629 | 34 | 93 | 4.8 | 14.5 | 0.00 | 0.00 | 0.00 | 43 | 1016.3 |
| 20260831224059 | 34 | 148 | 4.8 | 14.5 | 0.00 | 0.00 | 0.00 | 46 | 1016.2 |
| 20260831223557 | 34 | 155 | 6.4 | 17.7 | 0.00 | 0.00 | 0.00 | 43 | 1016.3 |
| 20260831223057 | 34 | 98 | 8.0 | 17.7 | 0.00 | 0.00 | 0.00 | 42 | 1016.3 |
| 20260831222556 | 34 | 228 | 1.6 | 25.7 | 0.00 | 0.00 | 0.00 | 43 | 1016.2 |
| 20260831222058 | 34 | 123 | 8.0 | 27.4 | 0.00 | 0.00 | 0.00 | 44 | 1016.2 |
| 20260831221605 | 34 | 163 | 8.0 | 16.1 | 0.00 | 0.00 | 0.00 | 43 | 1016.2 |
| 20260831221055 | 35 | 190 | 4.8 | 14.5 | 0.00 | 0.00 | 0.00 | 45 | 1016.2 |
| 20260831220657 | 35 | 179 | 6.4 | 14.5 | 0.00 | 0.00 | 0.00 | 43 | 1016.1 |
| 20260831220059 | 35 | 105 | 4.8 | 12.9 | 0.00 | 0.00 | 0.00 | 43 | 1016.2 |
| 20260831215559 | 35 | 77 | 3.2 | 19.3 | 0.00 | 0.00 | 0.00 | 44 | 1016.2 |
| 20260831215058 | 35 | 182 | 6.4 | 19.3 | 0.00 | 0.00 | 0.00 | 42 | 1016.1 |
| 20260831214603 | 35 | 151 | 8.0 | 16.1 | 0.00 | 0.00 | 0.00 | 43 | 1016.2 |
| 20260831214101 | 35 | 135 | 1.6 | 11.3 | 0.00 | 0.00 | 0.00 | 47 | 1016.4 |
| 20260831213559 | 35 | 153 | 4.8 | 16.1 | 0.00 | 0.00 | 0.00 | 44 | 1016.4 |
| 20260831213058 | 33 | 132 | 4.8 | 16.1 | 0.00 | 0.00 | 0.00 | 50 | 1016.3 |
| 20260831212557 | 33 | 215 | 1.6 | 9.7 | 0.00 | 0.00 | 0.00 | 52 | 1016.5 |
| 20260831212100 | 35 | 207 | 3.2 | 9.7 | 0.00 | 0.00 | 0.00 | 47 | 1016.5 |
| 20260831211607 | 35 | 100 | 3.2 | 9.7 | 0.00 | 0.00 | 0.00 | 46 | 1016.5 |
| 20260831211056 | 35 | 258 | 3.2 | 9.7 | 0.00 | 0.00 | 0.00 | 50 | 1016.5 |
| 20260831210656 | 35 | 192 | 1.6 | 12.9 | 0.00 | 0.00 | 0.00 | 41 | 1016.5 |
| 20260831210059 | 35 | 189 | 6.4 | 12.9 | 0.00 | 0.00 | 0.00 | 42 | 1016.6 |
| 20260831205551 | 33 | 145 | 1.6 | 11.3 | 0.00 | 0.00 | 0.00 | 51 | 1016.8 |
| 20260831205052 | 32 | 137 | 3.2 | 11.3 | 0.00 | 0.00 | 0.00 | 54 | 1016.6 |
| 20260831204551 | 33 | 136 | 1.6 | 11.3 | 0.00 | 0.00 | 0.00 | 51 | 1016.8 |
| 20260831204051 | 33 | 158 | 4.8 | 11.3 | 0.00 | 0.00 | 0.00 | 53 | 1016.8 |
| 20260831203550 | 33 | 134 | 1.6 | 8.0 | 0.00 | 0.00 | 0.00 | 53 | 1016.9 |
| 20260831203051 | 34 | 155 | 1.6 | 12.9 | 0.00 | 0.00 | 0.00 | 51 | 1016.9 |
| 20260831202550 | 35 | 141 | 3.2 | 12.9 | 0.00 | 0.00 | 0.00 | 40 | 1016.8 |
| 20260831202050 | 36 | 114 | 4.8 | 12.9 | 0.00 | 0.00 | 0.00 | 41 | 1016.9 |
| 20260831201551 | 36 | 140 | 4.8 | 14.5 | 0.00 | 0.00 | 0.00 | 44 | 1016.9 |
| 20260831201050 | 36 | 254 | 6.4 | 14.5 | 0.00 | 0.00 | 0.00 | 40 | 1017.0 |
| 20260831200652 | 36 | 186 | 3.2 | 12.9 | 0.00 | 0.00 | 0.00 | 42 | 1017.1 |
| 20260831200047 | 36 | 194 | 1.6 | 4.8 | 0.00 | 0.00 | 0.00 | 43 | 1017.2 |
| 20260831195548 | 36 | 117 | 1.6 | 6.4 | 0.00 | 0.00 | 0.00 | 48 | 1017.1 |
| 20260831195048 | 35 | 360 | 1.6 | 6.4 | 0.00 | 0.00 | 0.00 | 47 | 1017.2 |
| 20260831194556 | 34 | 338 | 0.0 | 4.8 | 0.00 | 0.00 | 0.00 | 45 | 1017.2 |
| 20260831194046 | 35 | 5 | 1.6 | 4.8 | 0.00 | 0.00 | 0.00 | 44 | 1017.3 |
| 20260831193547 | 35 | 49 | 0.0 | 3.2 | 0.00 | 0.00 | 0.00 | 49 | 1017.4 |
| 20260831193052 | 35 | 301 | 0.0 | 3.2 | 0.00 | 0.00 | 0.00 | 45 | 1017.5 |
| 20260831192545 | 35 | 340 | 1.6 | 8.0 | 0.00 | 0.00 | 0.00 | 42 | 1017.5 |
| 20260831192046 | 35 | 248 | 3.2 | 8.0 | 0.00 | 0.00 | 0.00 | 42 | 1017.6 |
| 20260831191550 | 35 | 12 | 1.6 | 8.0 | 0.00 | 0.00 | 0.00 | 49 | 1017.7 |
| 20260831191045 | 35 | 305 | 1.6 | 8.0 | 0.00 | 0.00 | 0.00 | 45 | 1017.7 |
| 20260831190645 | 36 | 328 | 1.6 | 16.1 | 0.00 | 0.00 | 0.00 | 42 | 1017.7 |
| 20260831190051 | 36 | 300 | 6.4 | 16.1 | 0.00 | 0.00 | 0.00 | 42 | 1017.7 |
| 20260831185548 | 36 | 31 | 1.6 | 6.4 | 0.00 | 0.00 | 0.00 | 45 | 1017.8 |
| 20260831185048 | 36 | 342 | 3.2 | 12.9 | 0.00 | 0.00 | 0.00 | 42 | 1017.8 |
| 20260831184549 | 36 | 296 | 1.6 | 16.1 | 0.00 | 0.00 | 0.00 | 40 | 1017.9 |
| 20260831184048 | 36 | 296 | 8.0 | 16.1 | 0.00 | 0.00 | 0.00 | 41 | 1018.1 |
| 20260831183547 | 36 | 327 | 4.8 | 11.3 | 0.00 | 0.00 | 0.00 | 40 | 1018.1 |
| 20260831183047 | 36 | 119 | 4.8 | 11.3 | 0.00 | 0.00 | 0.00 | 41 | 1018.1 |
| 20260831182546 | 36 | 223 | 3.2 | 9.7 | 0.00 | 0.00 | 0.00 | 43 | 1018.2 |
| 20260831182048 | 35 | 161 | 1.6 | 8.0 | 0.00 | 0.00 | 0.00 | 46 | 1018.2 |
| 20260831181545 | 35 | 314 | 1.6 | 14.5 | 0.00 | 0.00 | 0.00 | 44 | 1018.3 |
| 20260831181043 | 35 | 295 | 4.8 | 16.1 | 0.00 | 0.00 | 0.00 | 44 | 1018.3 |
| 20260831180644 | 35 | 278 | 4.8 | 16.1 | 0.00 | 0.00 | 0.00 | 42 | 1018.3 |
| 20260831180051 | 35 | 257 | 6.4 | 16.1 | 0.00 | 0.00 | 0.00 | 44 | 1018.4 |
| 20260831175550 | 36 | 355 | 8.0 | 16.1 | 0.00 | 0.00 | 0.00 | 43 | 1018.4 |
| 20260831175050 | 36 | 349 | 4.8 | 11.3 | 0.00 | 0.00 | 0.00 | 44 | 1018.4 |
| 20260831174550 | 36 | 269 | 4.8 | 11.3 | 0.00 | 0.00 | 0.00 | 42 | 1018.4 |
| 20260831174052 | 35 | 173 | 3.2 | 17.7 | 0.00 | 0.00 | 0.00 | 46 | 1018.5 |
| 20260831173548 | 35 | 192 | 3.2 | 17.7 | 0.00 | 0.00 | 0.00 | 44 | 1018.7 |
| 20260831173048 | 35 | 241 | 3.2 | 16.1 | 0.00 | 0.00 | 0.00 | 46 | 1018.8 |
| 20260831172548 | 35 | 306 | 4.8 | 16.1 | 0.00 | 0.00 | 0.00 | 47 | 1018.7 |
| 20260831172044 | 35 | 295 | 4.8 | 19.3 | 0.00 | 0.00 | 0.00 | 47 | 1018.8 |
| 20260831171543 | 35 | 294 | 8.0 | 19.3 | 0.00 | 0.00 | 0.00 | 46 | 1019.0 |
| 20260831171041 | 35 | 170 | 4.8 | 16.1 | 0.00 | 0.00 | 0.00 | 45 | 1019.0 |
| 20260831170642 | 35 | 284 | 1.6 | 12.9 | 0.00 | 0.00 | 0.00 | 51 | 1019.0 |
| 20260831170055 | 35 | 262 | 3.2 | 17.7 | 0.00 | 0.00 | 0.00 | 50 | 1019.2 |
| 20260831165551 | 34 | 246 | 3.2 | 17.7 | 0.00 | 0.00 | 0.00 | 50 | 1019.2 |
| 20260831165048 | 34 | 234 | 3.2 | 19.3 | 0.00 | 0.00 | 0.00 | 52 | 1019.3 |
| 20260831164548 | 34 | 200 | 8.0 | 19.3 | 0.00 | 0.00 | 0.00 | 48 | 1019.3 |
| 20260831164048 | 33 | 188 | 3.2 | 14.5 | 0.00 | 0.00 | 0.00 | 50 | 1019.4 |
| 20260831163546 | 33 | 313 | 6.4 | 16.1 | 0.00 | 0.00 | 0.00 | 49 | 1019.5 |
| 20260831163046 | 34 | 254 | 3.2 | 24.1 | 0.00 | 0.00 | 0.00 | 47 | 1019.5 |
| 20260831162548 | 33 | 311 | 8.0 | 24.1 | 0.00 | 0.00 | 0.00 | 48 | 1019.5 |
| 20260831162046 | 33 | 115 | 3.2 | 16.1 | 0.00 | 0.00 | 0.00 | 50 | 1019.5 |
| 20260831161641 | 33 | 266 | 3.2 | 14.5 | 0.00 | 0.00 | 0.00 | 50 | 1019.5 |
| 20260831161043 | 33 | 184 | 4.8 | 14.5 | 0.00 | 0.00 | 0.00 | 49 | 1019.5 |
| 20260831160512 | 33 | 165 | 1.6 | 14.5 | 0.00 | 0.00 | 0.00 | 53 | 1019.5 |
| 20260831160011 | 33 | 214 | 3.2 | 12.9 | 0.00 | 0.00 | 0.00 | 51 | 1019.5 |
| 20260831155507 | 32 | 253 | 6.4 | 12.9 | 0.00 | 0.00 | 0.00 | 53 | 1019.6 |
| 20260831155007 | 32 | 244 | 4.8 | 14.5 | 0.00 | 0.00 | 0.00 | 54 | 1019.5 |
| 20260831154504 | 32 | 213 | 4.8 | 14.5 | 0.00 | 0.00 | 0.00 | 53 | 1019.6 |
| 20260831154001 | 32 | 221 | 3.2 | 11.3 | 0.00 | 0.00 | 0.00 | 55 | 1019.6 |
| 20260831153501 | 31 | 236 | 3.2 | 19.3 | 0.00 | 0.00 | 0.00 | 57 | 1019.6 |
| 20260831153059 | 31 | 169 | 6.4 | 19.3 | 0.00 | 0.00 | 0.00 | 58 | 1019.7 |
| 20260831152558 | 31 | 233 | 3.2 | 16.1 | 0.00 | 0.00 | 0.00 | 56 | 1019.6 |
| 20260831152057 | 30 | 184 | 6.4 | 14.5 | 0.00 | 0.00 | 0.00 | 57 | 1019.7 |
| 20260831151609 | 30 | 171 | 4.8 | 14.5 | 0.00 | 0.00 | 0.00 | 59 | 1019.6 |
| 20260831151055 | 30 | 317 | 4.8 | 16.1 | 0.00 | 0.00 | 0.00 | 58 | 1019.6 |
| 20260831150505 | 30 | 186 | 6.4 | 16.1 | 0.00 | 0.00 | 0.00 | 59 | 1019.6 |
| 20260831150008 | 30 | 300 | 4.8 | 16.1 | 0.00 | 0.00 | 0.00 | 60 | 1019.6 |
| 20260831145503 | 29 | 205 | 3.2 | 11.3 | 0.00 | 0.00 | 0.00 | 59 | 1019.5 |
| 20260831145002 | 29 | 310 | 6.4 | 12.9 | 0.00 | 0.00 | 0.00 | 59 | 1019.6 |
| 20260831144500 | 29 | 194 | 4.8 | 12.9 | 0.00 | 0.00 | 0.00 | 60 | 1019.7 |
| 20260831144059 | 29 | 293 | 1.6 | 8.0 | 0.00 | 0.00 | 0.00 | 61 | 1019.7 |
| 20260831143558 | 28 | 240 | 1.6 | 11.3 | 0.00 | 0.00 | 0.00 | 61 | 1019.6 |
| 20260831143107 | 28 | 205 | 1.6 | 16.1 | 0.00 | 0.00 | 0.00 | 64 | 1019.6 |
| 20260831142556 | 28 | 217 | 8.0 | 16.1 | 0.00 | 0.00 | 0.00 | 61 | 1019.7 |
| 20260831142057 | 28 | 182 | 6.4 | 16.1 | 0.00 | 0.00 | 0.00 | 61 | 1019.6 |
| 20260831141553 | 28 | 175 | 8.0 | 17.7 | 0.00 | 0.00 | 0.00 | 62 | 1019.6 |
| 20260831141051 | 27 | 199 | 4.8 | 16.1 | 0.00 | 0.00 | 0.00 | 62 | 1019.7 |
| 20260831140502 | 27 | 21 | 4.8 | 16.1 | 0.00 | 0.00 | 0.00 | 64 | 1019.8 |
| 20260831140001 | 27 | 192 | 8.0 | 16.1 | 0.00 | 0.00 | 0.00 | 64 | 1019.8 |
| 20260831135600 | 26 | 188 | 6.4 | 12.9 | 0.00 | 0.00 | 0.00 | 65 | 1019.7 |
| 20260831135058 | 26 | 148 | 3.2 | 16.1 | 0.00 | 0.00 | 0.00 | 68 | 1019.6 |
| 20260831134600 | 25 | 215 | 4.8 | 16.1 | 0.00 | 0.00 | 0.00 | 71 | 1019.7 |
| 20260831134055 | 23 | 165 | 3.2 | 8.0 | 0.00 | 0.00 | 0.00 | 75 | 1019.6 |
| 20260831133556 | 23 | 194 | 1.6 | 11.3 | 0.00 | 0.00 | 0.00 | 75 | 1019.6 |
| 20260831133054 | 23 | 144 | 3.2 | 12.9 | 0.00 | 0.00 | 0.00 | 76 | 1019.7 |
| 20260831132554 | 22 | 236 | 3.2 | 12.9 | 0.00 | 0.00 | 0.00 | 78 | 1019.6 |
| 20260831132050 | 21 | 201 | 3.2 | 9.7 | 0.00 | 0.00 | 0.00 | 82 | 1019.5 |
| 20260831131601 | 21 | 144 | 1.6 | 8.0 | 0.00 | 0.00 | 0.00 | 82 | 1019.5 |
| 20260831131049 | 21 | 163 | 1.6 | 8.0 | 0.00 | 0.00 | 0.00 | 82 | 1019.6 |
| 20260831130648 | 21 | 164 | 1.6 | 6.4 | 0.00 | 0.00 | 0.00 | 82 | 1019.4 |
| 20260831130106 | 20 | 149 | 3.2 | 6.4 | 0.00 | 0.00 | 0.00 | 82 | 1019.4 |
| 20260831125552 | 21 | 223 | 3.2 | 6.4 | 0.00 | 0.00 | 0.00 | 81 | 1019.2 |
| 20260831125055 | 20 | 150 | 3.2 | 11.3 | 0.00 | 0.00 | 0.00 | 83 | 1019.3 |
| 20260831124558 | 20 | 146 | 3.2 | 11.3 | 0.00 | 0.00 | 0.00 | 85 | 1019.3 |
| 20260831124050 | 19 | 157 | 1.6 | 8.0 | 0.00 | 0.00 | 0.00 | 86 | 1019.2 |
| 20260831123550 | 19 | 170 | 1.6 | 4.8 | 0.00 | 0.00 | 0.00 | 87 | 1019.1 |
| 20260831123051 | 18 | 142 | 1.6 | 4.8 | 0.00 | 0.00 | 0.00 | 87 | 1019.1 |
| 20260831122548 | 18 | 173 | 3.2 | 6.4 | 0.00 | 0.00 | 0.00 | 88 | 1019.0 |
| 20260831122047 | 18 | 161 | 0.0 | 4.8 | 0.00 | 0.00 | 0.00 | 88 | 1019.0 |
| 20260831121551 | 18 | 165 | 1.6 | 8.0 | 0.00 | 0.00 | 0.00 | 89 | 1019.0 |
| 20260831121045 | 18 | 167 | 1.6 | 8.0 | 0.00 | 0.00 | 0.00 | 89 | 1018.9 |
| 20260831120643 | 18 | 128 | 0.0 | 8.0 | 0.00 | 0.00 | 0.00 | 89 | 1018.8 |
| 20260831120001 | 18 | 165 | 1.6 | 8.0 | 0.00 | 0.00 | 0.00 | 89 | 1017.9 |
| 20260831115600 | 18 | 132 | 0.0 | 1.6 | 0.00 | 0.00 | 0.00 | 89 | 1017.8 |
| 20260831115059 | 18 | 163 | 0.0 | 1.6 | 0.00 | 0.00 | 0.00 | 89 | 1017.8 |
| 20260831114600 | 18 | 168 | 0.0 | 1.6 | 0.00 | 0.00 | 0.00 | 88 | 1017.7 |
| 20260831114058 | 18 | 113 | 0.0 | 1.6 | 0.00 | 0.00 | 0.00 | 88 | 1017.7 |
| 20260831113558 | 18 | 114 | 0.0 | 1.6 | 0.00 | 0.00 | 0.00 | 88 | 1017.7 |
| 20260831113058 | 18 | 126 | 0.0 | 1.6 | 0.00 | 0.00 | 0.00 | 88 | 1017.6 |
| 20260831112556 | 18 | 126 | 0.0 | 3.2 | 0.00 | 0.00 | 0.00 | 88 | 1017.5 |
| 20260831112055 | 18 | 126 | 0.0 | 3.2 | 0.00 | 0.00 | 0.00 | 88 | 1017.5 |
| 20260831111555 | 18 | 111 | 0.0 | 3.2 | 0.00 | 0.00 | 0.00 | 87 | 1017.6 |
| 20260831111054 | 18 | 117 | 0.0 | 1.6 | 0.00 | 0.00 | 0.00 | 87 | 1017.5 |
| 20260831110655 | 18 | 123 | 0.0 | 3.2 | 0.00 | 0.00 | 0.00 | 86 | 1017.6 |
| 20260831110052 | 18 | 136 | 0.0 | 3.2 | 0.00 | 0.00 | 0.00 | 86 | 1017.6 |
| 20260831105552 | 18 | 143 | 0.0 | 3.2 | 0.00 | 0.00 | 0.00 | 86 | 1017.5 |
| 20260831105052 | 18 | 126 | 1.6 | 4.8 | 0.00 | 0.00 | 0.00 | 87 | 1017.6 |
| 20260831104553 | 18 | 138 | 1.6 | 4.8 | 0.00 | 0.00 | 0.00 | 87 | 1017.5 |
| 20260831104050 | 18 | 125 | 0.0 | 1.6 | 0.00 | 0.00 | 0.00 | 87 | 1017.5 |
| 20260831103553 | 18 | 159 | 0.0 | 1.6 | 0.00 | 0.00 | 0.00 | 86 | 1017.5 |
| 20260831103053 | 18 | 150 | 0.0 | 1.6 | 0.00 | 0.00 | 0.00 | 86 | 1017.4 |
| 20260831102554 | 18 | 163 | 0.0 | 1.6 | 0.00 | 0.00 | 0.00 | 86 | 1017.4 |
| 20260831102049 | 18 | 163 | 0.0 | 1.6 | 0.00 | 0.00 | 0.00 | 85 | 1017.4 |
| 20260831101558 | 19 | 164 | 0.0 | 1.6 | 0.00 | 0.00 | 0.00 | 84 | 1017.4 |
| 20260831101048 | 19 | 132 | 0.0 | 4.8 | 0.00 | 0.00 | 0.00 | 85 | 1017.4 |
| 20260831100646 | 19 | 131 | 0.0 | 4.8 | 0.00 | 0.00 | 0.00 | 84 | 1017.3 |
| 20260831095546 | 19 | 113 | 0.0 | 3.2 | 0.00 | 0.00 | 0.00 | 83 | 1017.4 |
| 20260831095046 | 19 | 160 | 0.0 | 3.2 | 0.00 | 0.00 | 0.00 | 83 | 1017.4 |
| 20260831094545 | 19 | 130 | 0.0 | 4.8 | 0.00 | 0.00 | 0.00 | 83 | 1017.4 |
| 20260831094046 | 20 | 130 | 1.6 | 8.0 | 0.00 | 0.00 | 0.00 | 82 | 1017.4 |
| 20260831093545 | 20 | 136 | 0.0 | 4.8 | 0.00 | 0.00 | 0.00 | 82 | 1017.4 |
| 20260831093049 | 20 | 160 | 0.0 | 4.8 | 0.00 | 0.00 | 0.00 | 81 | 1017.5 |
| 20260831092549 | 20 | 147 | 0.0 | 3.2 | 0.00 | 0.00 | 0.00 | 81 | 1017.4 |
| 20260831092044 | 20 | 127 | 0.0 | 4.8 | 0.00 | 0.00 | 0.00 | 81 | 1017.4 |
| 20260831091546 | 20 | 194 | 0.0 | 4.8 | 0.00 | 0.00 | 0.00 | 81 | 1017.3 |
| 20260831091044 | 20 | 150 | 0.0 | 4.8 | 0.00 | 0.00 | 0.00 | 79 | 1017.3 |
| 20260831090644 | 20 | 184 | 0.0 | 4.8 | 0.00 | 0.00 | 0.00 | 80 | 1017.2 |
| 20260831090048 | 20 | 90 | 0.0 | 3.2 | 0.00 | 0.00 | 0.00 | 79 | 1017.3 |
| 20260831085545 | 20 | 200 | 0.0 | 4.8 | 0.00 | 0.00 | 0.00 | 80 | 1017.4 |
| 20260831085045 | 21 | 202 | 0.0 | 4.8 | 0.00 | 0.00 | 0.00 | 77 | 1017.3 |
| 20260831084549 | 21 | 178 | 0.0 | 4.8 | 0.00 | 0.00 | 0.00 | 77 | 1017.2 |
| 20260831084044 | 21 | 193 | 0.0 | 3.2 | 0.00 | 0.00 | 0.00 | 78 | 1017.1 |
| 20260831083544 | 21 | 188 | 0.0 | 8.0 | 0.00 | 0.00 | 0.00 | 78 | 1017.1 |
| 20260831083045 | 20 | 227 | 1.6 | 11.3 | 0.00 | 0.00 | 0.00 | 78 | 1017.1 |
| 20260831082543 | 20 | 207 | 4.8 | 11.3 | 0.00 | 0.00 | 0.00 | 80 | 1017.0 |
| 20260831082043 | 20 | 162 | 1.6 | 4.8 | 0.00 | 0.00 | 0.00 | 80 | 1016.9 |
| 20260831081543 | 20 | 166 | 1.6 | 6.4 | 0.00 | 0.00 | 0.00 | 81 | 1016.8 |
| 20260831081042 | 20 | 142 | 1.6 | 9.7 | 0.00 | 0.00 | 0.00 | 82 | 1016.8 |
| 20260831080642 | 20 | 148 | 1.6 | 9.7 | 0.00 | 0.00 | 0.00 | 82 | 1016.7 |
| 20260831080043 | 19 | 152 | 0.0 | 4.8 | 0.00 | 0.00 | 0.00 | 81 | 1016.7 |
| 20260831075543 | 19 | 197 | 0.0 | 4.8 | 0.00 | 0.00 | 0.00 | 82 | 1016.8 |
| 20260831075047 | 19 | 195 | 1.6 | 4.8 | 0.00 | 0.00 | 0.00 | 84 | 1016.8 |
| 20260831074542 | 19 | 187 | 1.6 | 4.8 | 0.00 | 0.00 | 0.00 | 84 | 1016.9 |
| 20260831074041 | 19 | 174 | 1.6 | 4.8 | 0.00 | 0.00 | 0.00 | 83 | 1016.9 |
| 20260831073541 | 19 | 172 | 0.0 | 6.4 | 0.00 | 0.00 | 0.00 | 82 | 1017.0 |
| 20260831073041 | 19 | 189 | 0.0 | 6.4 | 0.00 | 0.00 | 0.00 | 82 | 1017.0 |
| 20260831072542 | 19 | 158 | 1.6 | 8.0 | 0.00 | 0.00 | 0.00 | 82 | 1016.9 |
| 20260831072040 | 19 | 165 | 0.0 | 6.4 | 0.00 | 0.00 | 0.00 | 82 | 1017.0 |
| 20260831071557 | 20 | 116 | 0.0 | 8.0 | 0.00 | 0.00 | 0.00 | 82 | 1016.9 |
| 20260831071042 | 20 | 167 | 1.6 | 9.7 | 0.00 | 0.00 | 0.00 | 82 | 1017.0 |
| 20260831070502 | 20 | 151 | 1.6 | 8.0 | 0.00 | 0.00 | 0.00 | 82 | 1017.2 |
| 20260831070002 | 20 | 130 | 1.6 | 8.0 | 0.00 | 0.00 | 0.00 | 81 | 1017.2 |
| 20260831065503 | 20 | 145 | 1.6 | 8.0 | 0.00 | 0.00 | 0.00 | 81 | 1017.2 |
| 20260831065002 | 20 | 184 | 1.6 | 6.4 | 0.00 | 0.00 | 0.00 | 81 | 1017.2 |
| 20260831064501 | 20 | 154 | 1.6 | 6.4 | 0.00 | 0.00 | 0.00 | 81 | 1017.3 |
| 20260831064102 | 20 | 185 | 0.0 | 6.4 | 0.00 | 0.00 | 0.00 | 81 | 1017.3 |
| 20260831063600 | 20 | 219 | 0.0 | 9.7 | 0.00 | 0.00 | 0.00 | 81 | 1017.4 |
| 20260831063110 | 20 | 134 | 1.6 | 9.7 | 0.00 | 0.00 | 0.00 | 81 | 1017.4 |
| 20260831062559 | 20 | 169 | 1.6 | 8.0 | 0.00 | 0.00 | 0.00 | 80 | 1017.4 |
| 20260831062059 | 20 | 189 | 3.2 | 8.0 | 0.00 | 0.00 | 0.00 | 80 | 1017.4 |
| 20260831061559 | 20 | 154 | 1.6 | 8.0 | 0.00 | 0.00 | 0.00 | 79 | 1017.4 |
| 20260831061101 | 20 | 136 | 1.6 | 8.0 | 0.00 | 0.00 | 0.00 | 80 | 1017.5 |